Location: *
(57.8420°S, 159.8600°W)
Time: 05:09:40
(UTC+00:00)

Cosmos 2333 Rocket - Pass Details

Date: 18 May 2021
Orbit: 839 x 862 km, 70.8° (Epoch: 20 June)

Event Time Altitude Azimuth Distance (km) Brightness Sun altitude
Rises 07:40:34 0° 247° (WSW) 3,430 6.2 -40.2°
Reaches altitude 10° 07:43:35 10° 232° (SW) 2,497 5.3 -40.6°
Enters shadow 07:46:11 19° 207° (SSW) 1,922 4.5 -40.9°
